Terminal Aerodrome Forecast
Issued by NWS Hastings, NE

Home | Current Version | Previous Version | Text Only | Print | Product List | Glossary On
Versions: 1 2 3 4 5 6 7 8 9 10 11 12 13 14 15 16 17 18
000
FTUS43 KGID 170931 AAB
TAFGRI
TAF AMD
KGRI 170931Z 1710/1806 34007KT P6SM BKN019
     FM171200 VRB06KT P6SM SCT120
     FM171700 14008KT P6SM FEW120=

USA.gov is the U.S. government's official web portal to all federal, state and local government web resources and services.